Lapse_Rate
2.4 4.2 5.1 4.2 3.7 3.6 3.4 4.3 4.2 3.5 4.8 2.7 2.8 1.8 2.2 2.5 1.8 3.5 3.2 2.6 3.0 3.3 3.6 3.8 4.2 4.3 4.5 4.7 4.6 4.6 4.9 5.2 5.5 5.8 6.2 6.6 7.4 8.2
1.8 3.8 3.6 3.2 3.3 3.0 2.9 3.4 4.1 4.8 3.0 2.5 2.0 1.4 1.9 2.3 1.5 3.1 2.5 3.2 3.2 3.6 3.7 3.7 3.9 4.0 4.2 4.4 4.5 4.6 4.9 5.2 5.6 6.0 6.2 6.4 6.8 7.4
1.8 3.3 2.6 2.0 2.8 2.9 2.7 2.9 3.1 3.9 2.6 0.1 1.2 1.2 2.3 2.7 2.8 3.3 3.4 4.3 3.8 3.9 3.7 3.8 4.0 3.9 3.9 4.0 4.2 4.5 4.7 4.9 5.1 5.4 5.7 6.0 6.3 6.7
0.9 1.5 1.5 1.0 1.7 2.1 2.6 2.7 3.0 3.0 2.7 0.8 0.8 1.4 2.5 3.2 3.6 4.0 3.8 4.5 5.1 4.0 4.0 3.8 3.8 3.8 4.0 4.0 4.1 4.4 4.8 5.1 5.3 5.5 5.7 5.9 5.9 5.9
-2.0 -0.4 0.2 0.6 1.1 1.3 2.4 2.7 2.6 2.7 2.8 1.8 0.9 2.1 1.9 2.7 3.7 4.0 4.2 4.7 4.5 3.4 3.4 3.5 3.6 3.9 4.0 4.1 4.2 4.4 4.7 5.1 5.6 5.8 6.2 6.4 6.1 6.3
-2.0 -1.0 0.3 0.6 1.5 1.1 1.6 3.3 3.1 3.2 3.3 2.8 2.2 2.0 3.0 3.1 4.6 4.9 4.8 5.2 4.7 4.2 3.2 3.4 3.4 3.3 3.5 3.7 3.8 4.1 4.6 5.2 5.7 6.6 7.3 8.1 7.9 8.0
-2.2 -1.2 0.3 0.4 0.5 1.6 1.8 1.9 3.5 3.4 3.3 3.0 2.7 2.9 3.1 3.3 4.2 5.1 6.0 5.4 5.0 4.9 5.4 5.3 5.1 5.0 4.4 4.4 4.5 4.4 4.8 5.4 5.8 6.2 6.5 6.9 7.6 8.1
-1.9 0.2 0.9 1.6 2.0 1.9 1.8 1.9 2.4 2.8 3.2 3.5 3.3 3.4 3.6 4.7 4.8 5.1 5.3 5.7 6.0 4.4 5.8 6.6 5.2 5.9 5.3 5.1 3.9 4.4 5.1 5.4 5.1 5.7 6.2 6.6 7.0 7.3
0.5 0.5 1.1 2.8 2.3 2.8 3.9 4.1 3.2 2.4 3.1 3.2 2.9 4.0 3.7 4.4 4.8 4.8 5.5 5.9 6.4 5.0 5.3 6.6 5.4 6.7 5.6 5.5 4.1 4.9 4.9 4.5 5.1 6.0 6.2 6.4 6.4 6.2
1.9 2.1 2.7 2.1 1.9 1.5 2.4 4.2 4.6 3.3 3.3 4.1 4.2 4.5 4.8 4.6 5.2 5.7 5.8 5.8 5.3 5.1 4.7 5.9 5.8 6.5 6.1 5.9 3.8 4.7 4.2 4.9 5.4 5.9 6.1 5.9 5.7 5.7
1.9 2.4 2.8 2.4 3.2 3.2 3.5 4.5 4.9 3.5 3.3 3.7 3.6 3.7 3.7 4.1 4.3 4.7 4.8 5.3 6.1 6.0 4.7 5.3 5.7 5.6 6.0 5.9 5.4 4.5 4.6 5.4 5.8 5.7 5.8 5.4 5.3 5.2
3.4 3.4 3.6 3.5 4.4 4.4 4.4 4.8 4.1 3.4 3.7 3.9 3.9 3.9 4.2 3.9 3.6 4.9 5.1 5.5 5.9 6.0 4.8 5.3 5.6 5.7 5.9 5.9 5.7 5.9 6.3 6.1 5.4 5.5 5.5 5.1 4.8 5.3
3.7 4.0 4.5 5.5 5.2 5.2 5.4 5.4 4.9 3.7 4.0 3.7 3.8 4.1 4.2 4.1 4.2 4.4 4.7 5.5 5.8 6.5 5.1 5.8 5.4 6.2 6.0 6.3 5.7 5.7 5.5 5.1 5.1 4.9 4.8 4.7 4.8 5.3
3.9 4.0 4.2 5.2 5.8 6.2 5.8 6.1 5.7 4.6 4.1 4.2 4.5 4.6 4.6 4.6 4.2 4.3 4.3 4.6 4.8 5.9 5.4 5.5 5.5 6.1 6.3 5.8 4.9 5.2 5.0 5.0 5.0 5.0 4.9 4.8 4.6 4.9
3.8 4.0 4.5 6.4 6.3 6.7 6.3 6.8 6.1 5.3 4.8 4.7 4.9 5.0 5.2 5.1 4.6 4.3 4.0 4.0 4.1 4.4 4.8 5.1 5.3 5.3 5.1 5.1 5.0 4.4 5.0 4.9 4.9 5.0 5.5 5.0 4.9 5.1
4.8 5.4 6.1 6.5 5.9 5.6 6.5 7.7 5.9 5.5 5.2 5.5 5.7 5.8 5.0 4.6 4.9 4.8 5.0 5.1 4.8 5.2 4.2 4.3 4.4 4.6 4.2 4.6 5.2 4.3 5.1 5.5 5.4 5.1 5.5 5.2 5.2 5.5
5.9 6.0 6.2 6.0 6.1 6.5 7.0 6.8 5.5 5.7 5.8 5.9 5.8 5.2 5.2 5.4 5.5 5.4 5.7 5.7 4.9 5.0 5.1 4.9 4.1 4.3 4.4 4.5 4.1 4.4 5.1 5.3 5.6 5.7 5.9 5.9 5.6 5.7
6.0 6.1 6.0 6.0 6.4 6.2 6.1 5.9 5.7 6.1 6.3 6.1 6.0 5.9 5.8 5.8 6.1 5.9 5.9 5.5 5.5 5.6 5.2 5.5 5.2 5.0 5.0 4.5 4.0 4.5 5.4 6.0 6.0 5.9 6.0 6.2 6.0 5.5
6.2 6.3 6.3 6.1 6.1 6.1 6.1 6.0 5.4 5.4 5.7 6.1 6.2 6.2 6.3 6.4 6.7 6.2 5.8 5.9 5.8 5.9 5.9 5.9 5.3 5.2 5.3 5.9 7.9 4.8 5.5 5.4 6.3 6.4 6.7 6.7 6.7 6.5
6.3 6.4 6.1 6.0 6.2 6.0 5.9 5.9 5.9 5.9 5.8 6.1 6.1 6.2 6.0 6.2 6.2 6.4 6.7 6.5 6.7 6.8 6.7 5.9 5.3 5.2 5.8 6.2 7.1 6.5 5.0 5.5 6.1 6.5 6.5 6.7 6.3 6.2
6.6 6.4 6.4 6.3 6.3 6.2 6.3 6.1 6.2 6.2 6.1 5.8 5.9 5.9 5.9 6.2 6.4 6.8 7.0 7.5 7.2 6.7 6.1 5.8 6.1 6.7 6.1 5.3 4.5 4.7 5.3 5.2 5.4 6.2 6.5 6.5 6.1 6.8
7.6 6.6 6.1 6.2 6.1 6.1 6.2 6.0 5.9 6.1 6.4 6.0 6.1 6.3 6.4 6.6 6.5 6.5 6.8 6.7 6.7 7.1 7.7 7.9 6.9 5.4 5.6 5.9 5.8 5.9 6.2 6.2 5.1 5.0 5.5 5.8 6.5 7.2
7.4 7.4 7.2 6.7 6.2 6.4 6.3 6.3 5.9 6.2 6.1 6.2 6.3 6.3 6.4 6.4 6.6 6.7 6.7 6.6 6.4 6.7 6.6 6.6 6.9 6.4 5.9 6.0 6.4 6.4 6.7 5.9 6.1 5.8 5.5 5.3 5.8 6.1
Wind_Speed
4 5 4 4 4 3 5 7 7 5 4 5 4 5 6 6 5 7 10 10 11 11 11 11 12 11 11 11 11 11 10 10 10 10 11 12 12 13
3 7 5 3 4 3 4 4 3 4 4 3 3 9 8 7 5 7 9 10 10 10 11 11 10 11 11 11 10 9 9 9 9 10 11 11 12 13
7 8 6 7 4 4 3 3 4 4 7 3 4 11 9 8 7 7 7 7 9 9 9 10 10 9 9 9 8 8 8 8 8 9 9 10 11 12
8 7 8 5 7 4 3 5 4 4 4 11 9 7 7 9 8 8 7 6 8 8 9 9 7 7 7 7 8 7 7 7 7 7 8 9 9 11
6 7 6 8 7 6 4 4 4 4 7 8 8 7 8 10 8 7 7 7 8 7 6 6 6 6 6 6 6 6 6 7 7 6 6 7 7 10
5 5 6 5 7 8 5 6 6 6 8 9 8 9 7 9 8 6 5 6 5 4 3 2 3 3 5 5 5 6 6 6 7 7 7 6 7 8
5 6 7 8 8 5 4 6 7 6 7 8 8 8 7 8 8 5 5 5 4 2 2 1 1 1 1 2 4 6 6 6 6 6 7 8 9 10
9 6 9 11 11 9 9 8 5 4 7 8 8 9 10 8 6 6 6 6 3 3 2 2 2 2 1 3 7 7 4 2 6 7 8 9 11 12
10 8 7 9 13 10 13 11 11 6 4 4 7 8 9 8 8 7 6 4 3 4 3 3 2 3 3 5 5 3 4 4 6 8 9 11 13 14
10 9 8 7 10 11 8 7 7 8 7 8 9 9 10 12 9 6 6 4 3 2 1 2 1 3 4 6 1 3 1 4 8 10 11 14 15 16
9 11 11 9 15 15 8 7 7 8 13 14 15 15 15 12 11 9 4 3 2 2 1 2 1 4 6 5 2 1 4 8 12 13 14 17 16 15
6 10 16 14 17 15 8 9 8 7 8 12 14 13 11 10 7 3 4 2 2 2 2 2 2 3 3 2 4 5 8 12 13 13 16 15 13 11
7 6 7 16 16 13 11 7 8 13 12 8 7 9 8 7 4 3 2 2 2 2 3 2 2 2 3 4 6 10 12 12 13 15 13 11 9 13
9 6 11 17 16 14 11 11 16 14 9 6 5 5 4 4 5 4 3 2 1 1 2 3 2 4 5 7 6 5 12 14 13 12 11 10 13 12
9 13 15 18 17 14 11 13 16 8 5 5 5 4 3 6 7 6 5 3 3 3 4 6 7 7 5 6 7 7 8 7 15 11 9 12 12 13
13 14 13 14 16 14 13 14 11 9 6 5 5 4 7 7 5 7 4 5 3 4 5 5 6 6 6 7 8 9 9 6 8 14 13 13 14 13
12 8 5 3 5 5 6 5 7 7 6 5 5 5 5 5 5 8 5 4 4 4 4 5 6 9 12 11 8 9 9 8 12 12 10 8 14 15
8 7 7 7 7 7 7 6 6 8 6 6 5 5 6 6 6 6 5 5 6 6 6 5 4 5 7 9 20 9 8 7 10 12 11 8 10 16
7 8 8 8 7 7 6 6 7 6 9 5 6 6 6 6 7 6 7 6 7 7 7 6 5 6 7 8 6 13 8 8 8 8 7 9 10 11
7 8 7 7 7 7 7 6 6 6 6 6 6 6 6 6 6 7 7 8 8 8 7 7 7 8 8 8 7 7 13 9 9 9 9 13 19 23
8 8 8 8 8 7 7 7 7 7 7 6 7 7 7 7 8 8 8 13 12 8 9 9 9 14 11 6 6 9 11 17 19 12 9 9 10 10
7 7 7 7 7 7 7 7 7 7 7 7 7 7 7 8 8 8 8 9 9 9 9 7 11 8 7 9 10 11 9 13 17 20 21 21 9 8
9 8 8 8 8 9 7 7 8 7 7 7 7 7 8 8 8 8 9 8 9 8 9 8 7 7 8 9 12 9 11 10 8 9 12 21 24 29
Wind_Direction
154 162 172 154 157 152 158 172 147 158 172 179 155 153 130 122 99 103 98 92 90 87 89 89 85 80 74 68 60 53 46 40 33 31 29 24 21 18
148 168 165 154 149 158 164 158 154 138 136 150 159 154 145 130 113 117 103 102 94 95 95 88 83 78 73 64 55 49 43 37 34 29 25 20 17 14
161 169 162 152 154 161 160 152 136 124 128 118 134 153 150 146 139 129 122 115 102 99 97 91 84 75 64 54 46 39 36 31 27 24 20 17 14 11
146 162 154 150 146 152 164 158 151 137 129 145 152 159 154 153 144 136 125 115 111 101 99 88 74 62 50 40 35 30 25 19 14 9 8 5 7 7
144 152 153 157 151 145 151 155 140 136 136 146 145 157 147 156 147 141 136 132 114 110 94 74 60 52 46 38 34 25 16 5 357 343 339 356 358 351
117 125 132 164 152 149 147 162 155 143 135 140 144 154 156 166 167 158 153 164 152 160 124 69 51 57 40 34 23 5 356 353 349 350 357 349 343 336
91 106 119 128 127 143 154 148 158 148 144 142 142 150 157 167 175 170 168 155 155 190 226 218 278 262 27 14 346 344 337 342 343 354 0 358 350 340
132 122 117 125 125 130 120 118 108 153 150 155 157 159 165 168 160 171 163 172 181 191 263 236 266 256 279 328 337 324 309 38 30 5 351 339 331 326
136 128 118 114 108 110 98 101 108 102 112 127 152 156 159 165 158 162 171 178 166 143 253 252 244 266 268 307 321 294 109 53 6 346 342 338 331 322
136 135 137 125 123 124 118 106 103 97 112 131 136 136 143 150 155 159 156 135 128 161 238 268 212 290 306 310 272 186 106 335 330 324 321 324 321 315
132 140 129 133 151 145 127 113 104 95 96 104 110 118 124 130 135 136 146 161 188 192 176 278 338 310 303 285 236 270 283 296 310 312 313 316 315 313
126 136 144 146 152 154 135 136 126 132 123 118 114 116 124 126 115 123 164 202 197 225 139 278 312 338 306 255 270 261 289 300 308 308 309 310 314 311
140 136 147 162 156 160 155 152 149 147 136 118 126 135 133 132 131 138 170 241 226 242 126 257 265 277 269 299 295 287 297 300 303 305 302 304 308 312
147 143 152 164 163 171 168 162 153 139 136 144 153 164 159 156 154 158 158 174 192 289 145 243 261 268 277 287 281 298 301 297 292 294 300 298 306 302
141 152 173 171 168 171 172 163 160 159 158 165 177 176 175 174 163 164 167 174 201 223 244 249 258 266 263 264 276 289 301 291 295 283 287 299 299 301
162 177 193 167 167 168 182 178 168 175 176 178 183 167 160 167 187 192 195 206 242 252 236 244 249 242 260 264 270 274 277 275 283 291 291 290 290 285
157 161 178 159 163 170 173 172 171 176 183 185 182 178 188 193 203 198 209 207 238 263 265 242 246 261 261 261 266 263 270 273 278 284 291 291 290 292
166 175 186 184 184 180 180 184 187 193 196 194 199 198 202 207 211 206 211 219 242 255 265 267 259 269 268 260 239 258 269 272 280 289 289 284 287 290
183 190 193 193 191 186 187 188 196 200 188 200 207 209 211 215 217 216 220 230 240 250 256 257 252 254 268 269 263 236 267 285 286 281 281 280 284 288
193 194 199 196 198 195 193 199 206 196 200 206 212 215 214 219 220 228 228 235 243 253 257 253 246 246 247 265 278 274 269 278 274 278 282 283 279 284
192 201 199 196 199 200 202 199 202 208 206 208 217 216 215 218 225 230 235 240 240 245 252 252 254 254 247 267 262 264 266 265 261 267 278 282 286 287
204 203 204 205 203 203 205 203 205 215 214 210 218 216 219 220 227 232 234 240 242 250 255 252 249 237 240 246 262 273 276 276 277 277 272 267 277 277
218 214 220 212 207 207 206 205 204 208 210 212 212 216 221 225 226 233 237 236 242 247 251 256 250 241 248 256 260 267 273 275 279 283 278 277 278 278